LCLKLCPH

Guest
Details From LCLK - Larnaca
To LCPH - PAFOS INTL
Flight Number -
Tags decoded
Created
Modified
Stats Distance 57 nm / 105 km
Max Altitude 0 ft / 0 m
Waypoints 2
Social Downloads 10
Likes 0
Share VATSIM

Download

Looking for another format? Having issues loading an existing format? Contact us
Advertisement - Login to hide

Notes

Requested: LCLK AKR LCPH Unmatched points: AKR

Route

LCLK LCPH

ID Type Via Altitude Latitude Longitude Leg Dist Tot Dist Heading (true) Name
O LCLK APT - 0 ft / 0 m 34.87512˚ 33.62483˚ - 0 nm - Larnaca
O LCPH APT - 0 ft / 0 m 34.71804˚ 32.48573˚ 56 nm 56 nm 261° / 260° PAFOS INTL

Altitude Profile

Advertisement - Login to hide

LCLK

Details ICAO LCLK (LCA)
Name Larnaca
Region Cyprus
Timezone Asia/Nicosia (UTC+3.0)
Stats Elevation 8 ft / 2 m (AMSL)
Location 34.875115° 33.624832°
Runways 1
Magnetic Variation 5.029° E

METAR

LCLK 272130Z 25003KT CAVOK 22/20 Q1010 NOSIG

Decode

TAF

TAF LCLK 271730Z 2718/2818 33007KT 9999 FEW020 BECMG 2810/2813 20013KT

Decode

Departure Runways

ID Width Length Bearing (true) Bearing (mag) Surface Threshold Offset Overrun Length
04 148 ft / 45 m 9,771 ft / 2,978 m 45.15° 40.12° Asphalt 0 ft / 0 m 210 ft / 64 m
22 148 ft / 45 m 9,771 ft / 2,978 m 225.17° 220.14° Asphalt 575 ft / 175 m 0 ft / 0 m

LCPH

Details ICAO LCPH (PFO)
Name PAFOS INTL
Region Cyprus
Timezone Asia/Nicosia (UTC+3.0)
Stats Elevation 41 ft / 12 m (AMSL)
Location 34.718038° 32.485731°
Runways 1
Magnetic Variation 4.957° E

METAR

LCPH 272130Z 32004KT 9999 FEW035 21/18 Q1011

Decode

TAF

TAF LCPH 271730Z 2718/2818 29011KT 9999 FEW020 BECMG 2719/2722 02008KT BECMG 2809/2844 28014

Decode

Destination Runways

ID Width Length Bearing (true) Bearing (mag) Surface Threshold Offset Overrun Length
11 148 ft / 45 m 8,854 ft / 2,699 m 110.34° 105.38° Asphalt 0 ft / 0 m 0 ft / 0 m
29 148 ft / 45 m 8,854 ft / 2,699 m 290.36° 285.40° Asphalt 0 ft / 0 m 150 ft / 46 m

Approach Navaids

Runway Type Ident Frequency Range Bearing (true) Bearing (mag) Slope Elevation
29 Localiser IPA 108.90 MHz 18 nm / 33 km 292.21° 287.25° - 73 ft / 22 m (AMSL)
29 Glidescope IPA 108.90 MHz 10 nm / 19 km 290.35° 285.39° 3.00° 73 ft / 22 m (AMSL)
29 DME IPA 108.90 MHz 18 nm / 33 km - - - 73 ft / 22 m (AMSL)

Popular Alternatives